This is the latest recevied weather packets stored in our database for station/object EA6MW-10. If no packets are shown the sender has not sent any weather packets the latest 10 day(s).
| Time | Temp. | Humidity | Pressure | Rain* | Wind** | Luminosity | Snow |
|---|---|---|---|---|---|---|---|
| 1777818198 | 25° C | 55% | 1015.1 hPa | - | - | - | - |
| 1777817297 | 23.33° C | 57% | 1015.2 hPa | - | - | - | - |
| 1777816412 | 23.33° C | 56% | 1015.5 hPa | - | - | - | - |
| 1777816397 | 23.33° C | 56% | 1015.5 hPa | - | - | - | - |
| 1777815497 | 21.67° C | 61% | 1016 hPa | - | - | - | - |
| 1777814597 | 20.56° C | 67% | 1016 hPa | - | - | - | - |
| 1777813696 | 21.67° C | 65% | 1015.7 hPa | - | - | - | - |
| 1777812796 | 21.67° C | 63% | 1015.9 hPa | - | - | - | - |
| 1777810996 | 22.78° C | 62% | 1016.2 hPa | - | - | - | - |
| 1777810096 | 23.89° C | 64% | 1016.3 hPa | - | - | - | - |
| 1777809195 | 22.78° C | 67% | 1016.4 hPa | - | - | - | - |
| 1777808295 | 21.67° C | 74% | 1016.8 hPa | - | - | - | - |
| 1777807395 | 21.67° C | 75% | 1016.8 hPa | - | - | - | - |
| 1777806495 | 20.56° C | 75% | 1016.7 hPa | - | - | - | - |
| 1777805595 | 18.89° C | 77% | 1016.7 hPa | - | - | - | - |
| 1777804694 | 18.89° C | 86% | 1016.8 hPa | - | - | - | - |
| 1777803794 | 17.22° C | 84% | 1016.7 hPa | - | - | - | - |
| 1777802894 | 16.11° C | 88% | 1017 hPa | - | - | - | - |
| 1777801994 | 16.11° C | 88% | 1016.9 hPa | - | - | - | - |
| 1777801093 | 15.56° C | 91% | 1016.7 hPa | - | - | - | - |
| 1777800193 | 15.56° C | 87% | 1016.6 hPa | - | - | - | - |
| 1777799293 | 15° C | 89% | 1016.2 hPa | - | - | - | - |
| 1777798392 | 15° C | 93% | 1014.9 hPa | - | - | - | - |
| 1777797492 | 15° C | 89% | 1015.6 hPa | - | - | - | - |
| 1777796592 | 15.56° C | 85% | 1015.8 hPa | - | - | - | - |
* Rain since midnight (hover to see other rain measurements)
** Current wind speed in m/s (hover to see current wind gust speed)